����������;��������(kWh)
2019-10-14 00:00;82,35
2019-10-14 00:15;80,5
2019-10-14 00:30;80,2
2019-10-14 00:45;82,1
2019-10-14 01:00;80,2
2019-10-14 01:15;79,6
2019-10-14 01:30;79,8
2019-10-14 01:45;78,9
2019-10-14 02:00;78,4
2019-10-14 02:15;78
2019-10-14 02:30;76,6
2019-10-14 02:45;74,15
2019-10-14 03:00;73,65
2019-10-14 03:15;72,55
2019-10-14 03:30;73,95
2019-10-14 03:45;74,25
2019-10-14 04:00;73,7
2019-10-14 04:15;73,4
2019-10-14 04:30;74,6
2019-10-14 04:45;76,85
2019-10-14 05:00;75,6
2019-10-14 05:15;77,3
2019-10-14 05:30;78,7
2019-10-14 05:45;76,75
2019-10-14 06:00;77,75
2019-10-14 06:15;75,8
2019-10-14 06:30;74,7
2019-10-14 06:45;74,5
2019-10-14 07:00;76,45
2019-10-14 07:15;81,3
2019-10-14 07:30;81,4
2019-10-14 07:45;133,15
2019-10-14 08:00;138,05
2019-10-14 08:15;105,3
2019-10-14 08:30;100,95
2019-10-14 08:45;100,5
2019-10-14 09:00;117,9
2019-10-14 09:15;118,7
2019-10-14 09:30;145,15
2019-10-14 09:45;141,3
2019-10-14 10:00;146,3
2019-10-14 10:15;137,75
2019-10-14 10:30;161,4
2019-10-14 10:45;162,45
2019-10-14 11:00;160,25
2019-10-14 11:15;171,65
2019-10-14 11:30;170,55
2019-10-14 11:45;181,5
2019-10-14 12:00;183,55
2019-10-14 12:15;170,5
2019-10-14 12:30;180,75
2019-10-14 12:45;175,6
2019-10-14 13:00;194,6
2019-10-14 13:15;192,15
2019-10-14 13:30;174,95
2019-10-14 13:45;184,75
2019-10-14 14:00;182
2019-10-14 14:15;196,2
2019-10-14 14:30;181,9
2019-10-14 14:45;180
2019-10-14 15:00;164,25
2019-10-14 15:15;171,6
2019-10-14 15:30;166,8
2019-10-14 15:45;161,1
2019-10-14 16:00;163,5
2019-10-14 16:15;160,95
2019-10-14 16:30;153,45
2019-10-14 16:45;158,65
2019-10-14 17:00;142,45
2019-10-14 17:15;154,25
2019-10-14 17:30;149,75
2019-10-14 17:45;140
2019-10-14 18:00;141,4
2019-10-14 18:15;133,4
2019-10-14 18:30;141,85
2019-10-14 18:45;128,75
2019-10-14 19:00;139,9
2019-10-14 19:15;130,6
2019-10-14 19:30;126,2
2019-10-14 19:45;123,7
2019-10-14 20:00;120,65
2019-10-14 20:15;113,3
2019-10-14 20:30;109,9
2019-10-14 20:45;113,75
2019-10-14 21:00;110,6
2019-10-14 21:15;106,1
2019-10-14 21:30;106,55
2019-10-14 21:45;108,6
2019-10-14 22:00;101,05
2019-10-14 22:15;99,1
2019-10-14 22:30;90,75
2019-10-14 22:45;87
2019-10-14 23:00;93,5
2019-10-14 23:15;89,4
2019-10-14 23:30;92,75
2019-10-14 23:45;95,05
2019-10-15 00:00;83,8
2019-10-15 00:15;82,9
2019-10-15 00:30;84,65
2019-10-15 00:45;84,6
2019-10-15 01:00;84,25
2019-10-15 01:15;82,85
2019-10-15 01:30;80,6
2019-10-15 01:45;79,55
2019-10-15 02:00;77,15
2019-10-15 02:15;77,4
2019-10-15 02:30;77,25
2019-10-15 02:45;77,65
2019-10-15 03:00;77,85
2019-10-15 03:15;77,6
2019-10-15 03:30;76,95
2019-10-15 03:45;77,05
2019-10-15 04:00;79
2019-10-15 04:15;78,95
2019-10-15 04:30;80,5
2019-10-15 04:45;81,5
2019-10-15 05:00;81,45
2019-10-15 05:15;80,4
2019-10-15 05:30;81,25
2019-10-15 05:45;83
2019-10-15 06:00;82,75
2019-10-15 06:15;81
2019-10-15 06:30;77,9
2019-10-15 06:45;80,45
2019-10-15 07:00;82,6
2019-10-15 07:15;82,25
2019-10-15 07:30;84,35
2019-10-15 07:45;138,65
2019-10-15 08:00;124,55
2019-10-15 08:15;97,2
2019-10-15 08:30;112,15
2019-10-15 08:45;109,75
2019-10-15 09:00;120
2019-10-15 09:15;130,65
2019-10-15 09:30;149,35
2019-10-15 09:45;137,3
2019-10-15 10:00;160,65
2019-10-15 10:15;162,55
2019-10-15 10:30;174,35
2019-10-15 10:45;165,15
2019-10-15 11:00;177,25
2019-10-15 11:15;182,15
2019-10-15 11:30;176,55
2019-10-15 11:45;192,35
2019-10-15 12:00;191,35
2019-10-15 12:15;183,7
2019-10-15 12:30;197,35
2019-10-15 12:45;185,8
2019-10-15 13:00;189,95
2019-10-15 13:15;194,7
2019-10-15 13:30;196,65
2019-10-15 13:45;174,2
2019-10-15 14:00;188,3
2019-10-15 14:15;177,8
2019-10-15 14:30;190,45
2019-10-15 14:45;178,4
2019-10-15 15:00;178,05
2019-10-15 15:15;161,95
2019-10-15 15:30;173,9
2019-10-15 15:45;158,55
2019-10-15 16:00;157,95
2019-10-15 16:15;160,15
2019-10-15 16:30;149
2019-10-15 16:45;156,7
2019-10-15 17:00;142
2019-10-15 17:15;142,85
2019-10-15 17:30;147,05
2019-10-15 17:45;130,8
2019-10-15 18:00;135,35
2019-10-15 18:15;138,15
2019-10-15 18:30;126,4
2019-10-15 18:45;132,75
2019-10-15 19:00;132,9
2019-10-15 19:15;127,85
2019-10-15 19:30;125,2
2019-10-15 19:45;127,35
2019-10-15 20:00;120,8
2019-10-15 20:15;113,7
2019-10-15 20:30;113,55
2019-10-15 20:45;111,25
2019-10-15 21:00;108,35
2019-10-15 21:15;109,3
2019-10-15 21:30;108,35
2019-10-15 21:45;108,15
2019-10-15 22:00;101,9
2019-10-15 22:15;99,65
2019-10-15 22:30;92,35
2019-10-15 22:45;88,3
2019-10-15 23:00;91,55
2019-10-15 23:15;86,85
2019-10-15 23:30;87,6
2019-10-15 23:45;93,55
2019-10-16 00:00;84,55
2019-10-16 00:15;81,1
2019-10-16 00:30;83
2019-10-16 00:45;81,7
2019-10-16 01:00;80,55
2019-10-16 01:15;78,1
2019-10-16 01:30;78,9
2019-10-16 01:45;80,25
2019-10-16 02:00;80,2
2019-10-16 02:15;79,55
2019-10-16 02:30;79,35
2019-10-16 02:45;81,85
2019-10-16 03:00;83,7
2019-10-16 03:15;82,05
2019-10-16 03:30;81,7
2019-10-16 03:45;81,4
2019-10-16 04:00;82,8
2019-10-16 04:15;85,5
2019-10-16 04:30;84,4
2019-10-16 04:45;83,5
2019-10-16 05:00;85,3
2019-10-16 05:15;85,95
2019-10-16 05:30;86,55
2019-10-16 05:45;87,45
2019-10-16 06:00;87,8
2019-10-16 06:15;87,05
2019-10-16 06:30;78,65
2019-10-16 06:45;80,65
2019-10-16 07:00;80,75
2019-10-16 07:15;83,95
2019-10-16 07:30;83,8
2019-10-16 07:45;135,4
2019-10-16 08:00;115,65
2019-10-16 08:15;113,4
2019-10-16 08:30;103,05
2019-10-16 08:45;115,5
2019-10-16 09:00;111,2
2019-10-16 09:15;131,1
2019-10-16 09:30;127,15
2019-10-16 09:45;143,3
2019-10-16 10:00;148,15
2019-10-16 10:15;147,3
2019-10-16 10:30;165,3
2019-10-16 10:45;171,95
2019-10-16 11:00;168
2019-10-16 11:15;171,4
2019-10-16 11:30;172,95
2019-10-16 11:45;184,6
2019-10-16 12:00;177
2019-10-16 12:15;179,6
2019-10-16 12:30;173,25
2019-10-16 12:45;188,4
2019-10-16 13:00;181,95
2019-10-16 13:15;177,5
2019-10-16 13:30;177,5
2019-10-16 13:45;162,8
2019-10-16 14:00;173,7
2019-10-16 14:15;163,4
2019-10-16 14:30;172,05
2019-10-16 14:45;163,75
2019-10-16 15:00;173,75
2019-10-16 15:15;168,15
2019-10-16 15:30;158,95
2019-10-16 15:45;154,2
2019-10-16 16:00;155,85
2019-10-16 16:15;163
2019-10-16 16:30;145,8
2019-10-16 16:45;158,9
2019-10-16 17:00;143,6
2019-10-16 17:15;144,5
2019-10-16 17:30;145,55
2019-10-16 17:45;138,35
2019-10-16 18:00;145,7
2019-10-16 18:15;127,2
2019-10-16 18:30;139,75
2019-10-16 18:45;133,7
2019-10-16 19:00;144,55
2019-10-16 19:15;127,1
2019-10-16 19:30;124,65
2019-10-16 19:45;127,8
2019-10-16 20:00;120,9
2019-10-16 20:15;112,65
2019-10-16 20:30;106,9
2019-10-16 20:45;101,5
2019-10-16 21:00;102,6
2019-10-16 21:15;104,6
2019-10-16 21:30;99,5
2019-10-16 21:45;96,8
2019-10-16 22:00;92,55
2019-10-16 22:15;87,85
2019-10-16 22:30;86,75
2019-10-16 22:45;84,35
2019-10-16 23:00;91,8
2019-10-16 23:15;86,35
2019-10-16 23:30;88,75
2019-10-16 23:45;91,75
2019-10-17 00:00;82,3
2019-10-17 00:15;83,95
2019-10-17 00:30;80,9
2019-10-17 00:45;79,05
2019-10-17 01:00;80,75
2019-10-17 01:15;82,55
2019-10-17 01:30;78,45
2019-10-17 01:45;80
2019-10-17 02:00;81,3
2019-10-17 02:15;74,95
2019-10-17 02:30;75,85
2019-10-17 02:45;77,8
2019-10-17 03:00;75,75
2019-10-17 03:15;76,4
2019-10-17 03:30;76,55
2019-10-17 03:45;74,55
2019-10-17 04:00;75,45
2019-10-17 04:15;77,15
2019-10-17 04:30;77,25
2019-10-17 04:45;79,25
2019-10-17 05:00;78,25
2019-10-17 05:15;80,45
2019-10-17 05:30;80,35
2019-10-17 05:45;79,05
2019-10-17 06:00;79,3
2019-10-17 06:15;77,35
2019-10-17 06:30;75,05
2019-10-17 06:45;77,75
2019-10-17 07:00;81
2019-10-17 07:15;85,3
2019-10-17 07:30;86,7
2019-10-17 07:45;138,75
2019-10-17 08:00;119,05
2019-10-17 08:15;94
2019-10-17 08:30;108,65
2019-10-17 08:45;111
2019-10-17 09:00;123,05
2019-10-17 09:15;130,5
2019-10-17 09:30;144,1
2019-10-17 09:45;156,5
2019-10-17 10:00;156,55
2019-10-17 10:15;161,4
2019-10-17 10:30;171,4
2019-10-17 10:45;164,25
2019-10-17 11:00;180
2019-10-17 11:15;176,9
2019-10-17 11:30;177,6
2019-10-17 11:45;187,7
2019-10-17 12:00;197,1
2019-10-17 12:15;182,1
2019-10-17 12:30;184,95
2019-10-17 12:45;178,15
2019-10-17 13:00;196,1
2019-10-17 13:15;187,2
2019-10-17 13:30;188,65
2019-10-17 13:45;172,95
2019-10-17 14:00;184,7
2019-10-17 14:15;184
2019-10-17 14:30;177,8
2019-10-17 14:45;185,2
2019-10-17 15:00;168,4
2019-10-17 15:15;180,5
2019-10-17 15:30;171,3
2019-10-17 15:45;166,4
2019-10-17 16:00;167,35
2019-10-17 16:15;173,05
2019-10-17 16:30;151,75
2019-10-17 16:45;158,15
2019-10-17 17:00;143,15
2019-10-17 17:15;145,45
2019-10-17 17:30;140,6
2019-10-17 17:45;134,7
2019-10-17 18:00;131,2
2019-10-17 18:15;139,45
2019-10-17 18:30;136,3
2019-10-17 18:45;136,3
2019-10-17 19:00;139,4
2019-10-17 19:15;129,4
2019-10-17 19:30;127,4
2019-10-17 19:45;124,8
2019-10-17 20:00;124,05
2019-10-17 20:15;116,5
2019-10-17 20:30;116,25
2019-10-17 20:45;116,65
2019-10-17 21:00;110,9
2019-10-17 21:15;100,8
2019-10-17 21:30;98,4
2019-10-17 21:45;95,8
2019-10-17 22:00;90,2
2019-10-17 22:15;91,05
2019-10-17 22:30;87,75
2019-10-17 22:45;85,55
2019-10-17 23:00;94
2019-10-17 23:15;88,65
2019-10-17 23:30;89,25
2019-10-17 23:45;94,1
2019-10-18 00:00;84,65
2019-10-18 00:15;84,65
2019-10-18 00:30;83,05
2019-10-18 00:45;84,4
2019-10-18 01:00;83,9
2019-10-18 01:15;78,8
2019-10-18 01:30;78,2
2019-10-18 01:45;77
2019-10-18 02:00;76,8
2019-10-18 02:15;76,15
2019-10-18 02:30;79,75
2019-10-18 02:45;76,8
2019-10-18 03:00;78,9
2019-10-18 03:15;78,4
2019-10-18 03:30;76,65
2019-10-18 03:45;77,25
2019-10-18 04:00;77,9
2019-10-18 04:15;79,4
2019-10-18 04:30;78,1
2019-10-18 04:45;81,75
2019-10-18 05:00;79,7
2019-10-18 05:15;82,55
2019-10-18 05:30;80
2019-10-18 05:45;81,9
2019-10-18 06:00;83
2019-10-18 06:15;79,2
2019-10-18 06:30;80,6
2019-10-18 06:45;79,35
2019-10-18 07:00;79,65
2019-10-18 07:15;80,45
2019-10-18 07:30;86,95
2019-10-18 07:45;143,25
2019-10-18 08:00;134,05
2019-10-18 08:15;108,3
2019-10-18 08:30;121,6
2019-10-18 08:45;117,7
2019-10-18 09:00;131,05
2019-10-18 09:15;132,8
2019-10-18 09:30;152,95
2019-10-18 09:45;140,3
2019-10-18 10:00;159,25
2019-10-18 10:15;154,7
2019-10-18 10:30;162,9
2019-10-18 10:45;164,55
2019-10-18 11:00;156,9
2019-10-18 11:15;173,4
2019-10-18 11:30;166,3
2019-10-18 11:45;165,55
2019-10-18 12:00;167,25
2019-10-18 12:15;174,9
2019-10-18 12:30;171,6
2019-10-18 12:45;173,7
2019-10-18 13:00;177,45
2019-10-18 13:15;173,05
2019-10-18 13:30;169,65
2019-10-18 13:45;171,75
2019-10-18 14:00;166,4
2019-10-18 14:15;169,7
2019-10-18 14:30;172,35
2019-10-18 14:45;167
2019-10-18 15:00;164,1
2019-10-18 15:15;159,45
2019-10-18 15:30;159,2
2019-10-18 15:45;152,25
2019-10-18 16:00;143,65
2019-10-18 16:15;141,7
2019-10-18 16:30;139,4
2019-10-18 16:45;135,4
2019-10-18 17:00;131,85
2019-10-18 17:15;127,75
2019-10-18 17:30;121,4
2019-10-18 17:45;122,85
2019-10-18 18:00;123,8
2019-10-18 18:15;124,6
2019-10-18 18:30;121,75
2019-10-18 18:45;124,1
2019-10-18 19:00;121,4
2019-10-18 19:15;118,25
2019-10-18 19:30;113,55
2019-10-18 19:45;111,85
2019-10-18 20:00;110,1
2019-10-18 20:15;105,3
2019-10-18 20:30;102,65
2019-10-18 20:45;104,1
2019-10-18 21:00;103,7
2019-10-18 21:15;102,25
2019-10-18 21:30;100,35
2019-10-18 21:45;95,1
2019-10-18 22:00;91,55
2019-10-18 22:15;93,3
2019-10-18 22:30;92,9
2019-10-18 22:45;90,75
2019-10-18 23:00;99,7
2019-10-18 23:15;93,9
2019-10-18 23:30;95,95
2019-10-18 23:45;100,05
2019-10-19 00:00;87
2019-10-19 00:15;88,9
2019-10-19 00:30;82,85
2019-10-19 00:45;80,2
2019-10-19 01:00;78,2
2019-10-19 01:15;78,4
2019-10-19 01:30;79,35
2019-10-19 01:45;79
2019-10-19 02:00;77,25
2019-10-19 02:15;78,65
2019-10-19 02:30;76,4
2019-10-19 02:45;76,15
2019-10-19 03:00;75,1
2019-10-19 03:15;72,9
2019-10-19 03:30;72,9
2019-10-19 03:45;72,5
2019-10-19 04:00;75,95
2019-10-19 04:15;75,15
2019-10-19 04:30;74,35
2019-10-19 04:45;74,9
2019-10-19 05:00;77,8
2019-10-19 05:15;75,6
2019-10-19 05:30;75,05
2019-10-19 05:45;75,9
2019-10-19 06:00;75,55
2019-10-19 06:15;73,55
2019-10-19 06:30;71,45
2019-10-19 06:45;72,9
2019-10-19 07:00;73,05
2019-10-19 07:15;71,8
2019-10-19 07:30;73
2019-10-19 07:45;67,55
2019-10-19 08:00;67,75
2019-10-19 08:15;68,2
2019-10-19 08:30;70
2019-10-19 08:45;70
2019-10-19 09:00;70,05
2019-10-19 09:15;70,95
2019-10-19 09:30;73,55
2019-10-19 09:45;70,3
2019-10-19 10:00;68,55
2019-10-19 10:15;69,5
2019-10-19 10:30;73,95
2019-10-19 10:45;75,45
2019-10-19 11:00;74,5
2019-10-19 11:15;74,75
2019-10-19 11:30;73,75
2019-10-19 11:45;72,45
2019-10-19 12:00;70,3
2019-10-19 12:15;72,9
2019-10-19 12:30;71,6
2019-10-19 12:45;74
2019-10-19 13:00;75,25
2019-10-19 13:15;74,65
2019-10-19 13:30;74,1
2019-10-19 13:45;79,1
2019-10-19 14:00;75,45
2019-10-19 14:15;72,2
2019-10-19 14:30;75,05
2019-10-19 14:45;73,5
2019-10-19 15:00;76,25
2019-10-19 15:15;79,15
2019-10-19 15:30;76
2019-10-19 15:45;71,15
2019-10-19 16:00;74,55
2019-10-19 16:15;74,65
2019-10-19 16:30;75,15
2019-10-19 16:45;72,9
2019-10-19 17:00;72,05
2019-10-19 17:15;76
2019-10-19 17:30;73,2
2019-10-19 17:45;73,55
2019-10-19 18:00;74,8
2019-10-19 18:15;76,35
2019-10-19 18:30;80,45
2019-10-19 18:45;78,15
2019-10-19 19:00;83,4
2019-10-19 19:15;88,35
2019-10-19 19:30;85,8
2019-10-19 19:45;88,3
2019-10-19 20:00;89,2
2019-10-19 20:15;87,35
2019-10-19 20:30;88,05
2019-10-19 20:45;89,4
2019-10-19 21:00;91,25
2019-10-19 21:15;87,6
2019-10-19 21:30;88,25
2019-10-19 21:45;90,35
2019-10-19 22:00;84
2019-10-19 22:15;84,05
2019-10-19 22:30;78,4
2019-10-19 22:45;80,3
2019-10-19 23:00;86,85
2019-10-19 23:15;84,5
2019-10-19 23:30;83,85
2019-10-19 23:45;90,5
2019-10-20 00:00;79,35
2019-10-20 00:15;80,4
2019-10-20 00:30;80,9
2019-10-20 00:45;79,9
2019-10-20 01:00;79,35
2019-10-20 01:15;74,9
2019-10-20 01:30;76,8
2019-10-20 01:45;73,75
2019-10-20 02:00;73,4
2019-10-20 02:15;73,05
2019-10-20 02:30;73,05
2019-10-20 02:45;75,4
2019-10-20 03:00;74,55
2019-10-20 03:15;74,75
2019-10-20 03:30;73,45
2019-10-20 03:45;75,2
2019-10-20 04:00;76,35
2019-10-20 04:15;76,3
2019-10-20 04:30;75,85
2019-10-20 04:45;77,25
2019-10-20 05:00;75,25
2019-10-20 05:15;78,4
2019-10-20 05:30;75,5
2019-10-20 05:45;77,5
2019-10-20 06:00;74,3
2019-10-20 06:15;74,3
2019-10-20 06:30;73,6
2019-10-20 06:45;71,3
2019-10-20 07:00;75
2019-10-20 07:15;74
2019-10-20 07:30;72,2
2019-10-20 07:45;67,6
2019-10-20 08:00;67
2019-10-20 08:15;68,35
2019-10-20 08:30;66,4
2019-10-20 08:45;65,65
2019-10-20 09:00;71,65
2019-10-20 09:15;76,25
2019-10-20 09:30;74,8
2019-10-20 09:45;75,5
2019-10-20 10:00;73,65
2019-10-20 10:15;74,75
2019-10-20 10:30;73,5
2019-10-20 10:45;73,45
2019-10-20 11:00;72
2019-10-20 11:15;71,8
2019-10-20 11:30;73,2
2019-10-20 11:45;74,25
2019-10-20 12:00;78,3
2019-10-20 12:15;74,9
2019-10-20 12:30;74,1
2019-10-20 12:45;78,35
2019-10-20 13:00;75
2019-10-20 13:15;74,15
2019-10-20 13:30;74,9
2019-10-20 13:45;78,65
2019-10-20 14:00;74,45
2019-10-20 14:15;73,85
2019-10-20 14:30;76,55
2019-10-20 14:45;77,3
2019-10-20 15:00;78,1
2019-10-20 15:15;77,35
2019-10-20 15:30;76,6
2019-10-20 15:45;80,95
2019-10-20 16:00;80,55
2019-10-20 16:15;78,65
2019-10-20 16:30;81,15
2019-10-20 16:45;79,4
2019-10-20 17:00;77,85
2019-10-20 17:15;79,4
2019-10-20 17:30;76,95
2019-10-20 17:45;83,35
2019-10-20 18:00;80,5
2019-10-20 18:15;80,7
2019-10-20 18:30;82,3
2019-10-20 18:45;85,9
2019-10-20 19:00;85
2019-10-20 19:15;83,5
2019-10-20 19:30;88,95
2019-10-20 19:45;90,2
2019-10-20 20:00;88,05
2019-10-20 20:15;84,1
2019-10-20 20:30;89,25
2019-10-20 20:45;89,25
2019-10-20 21:00;89,9
2019-10-20 21:15;85
2019-10-20 21:30;84,4
2019-10-20 21:45;86
2019-10-20 22:00;80,55
2019-10-20 22:15;79,35
2019-10-20 22:30;76,9
2019-10-20 22:45;80,45
2019-10-20 23:00;83,45
2019-10-20 23:15;79,05
2019-10-20 23:30;81,7
2019-10-20 23:45;85,3

